TimePDT,TemperatureF,Dew PointF,Humidity,Sea Level PressureIn,VisibilityMPH,Wind Direction,Wind SpeedMPH,Gust SpeedMPH,PrecipitationIn,Events,Conditions,WindDirDegrees,DateUTC
12:53 AM,53.1,36.0,52,30.09,10.0,SSE,3.5,-,N/A,,Overcast,160,2013-04-19 07:53:00
1:53 AM,50.0,37.9,63,30.09,10.0,Calm,Calm,-,N/A,,Mostly Cloudy,0,2013-04-19 08:53:00
2:53 AM,48.0,37.9,68,30.08,10.0,SSW,8.1,-,N/A,,Overcast,210,2013-04-19 09:53:00
3:53 AM,46.9,41.0,80,30.06,10.0,SSW,6.9,-,0.00,Rain,Light Rain,200,2013-04-19 10:53:00
4:53 AM,46.0,42.1,86,30.04,10.0,SSE,5.8,-,0.02,Rain,Light Rain,160,2013-04-19 11:53:00
5:53 AM,46.9,43.0,86,30.02,10.0,Calm,Calm,-,0.00,Rain,Light Rain,0,2013-04-19 12:53:00
6:53 AM,46.9,43.0,86,30.02,10.0,Calm,Calm,-,0.00,,Overcast,0,2013-04-19 13:53:00
7:53 AM,48.0,44.1,86,30.01,10.0,Calm,Calm,-,N/A,,Overcast,0,2013-04-19 14:53:00
8:53 AM,50.0,44.1,80,29.99,10.0,WSW,5.8,-,N/A,,Partly Cloudy,240,2013-04-19 15:53:00
9:53 AM,55.0,42.1,62,29.96,10.0,SW,9.2,-,N/A,,Clear,220,2013-04-19 16:53:00
10:53 AM,59.0,41.0,51,29.95,10.0,WSW,11.5,-,N/A,,Clear,240,2013-04-19 17:53:00
11:53 AM,59.0,41.0,51,29.94,10.0,SW,11.5,-,N/A,,Clear,230,2013-04-19 18:53:00
12:53 PM,60.1,37.9,44,29.93,10.0,WSW,16.1,-,N/A,,Clear,250,2013-04-19 19:53:00
1:53 PM,63.0,37.0,38,29.92,10.0,West,15.0,24.2,N/A,,Clear,270,2013-04-19 20:53:00
2:53 PM,64.0,37.0,37,29.92,10.0,West,18.4,23.0,N/A,,Clear,260,2013-04-19 21:53:00
3:53 PM,64.9,36.0,34,29.91,10.0,West,19.6,26.5,N/A,,Clear,280,2013-04-19 22:53:00
4:53 PM,66.0,34.0,30,29.90,10.0,WNW,16.1,-,N/A,,Overcast,290,2013-04-19 23:53:00
5:53 PM,63.0,33.1,33,29.91,10.0,WNW,18.4,27.6,N/A,,Overcast,300,2013-04-20 00:53:00
6:53 PM,63.0,34.0,34,29.91,10.0,West,17.3,26.5,N/A,,Mostly Cloudy,280,2013-04-20 01:53:00
7:53 PM,60.1,34.0,38,29.93,10.0,NW,11.5,-,N/A,,Clear,310,2013-04-20 02:53:00
8:53 PM,57.0,33.1,40,29.95,10.0,WNW,15.0,-,N/A,,Clear,290,2013-04-20 03:53:00
9:53 PM,55.0,33.1,43,29.97,10.0,West,15.0,25.3,N/A,,Clear,270,2013-04-20 04:53:00
10:53 PM,54.0,34.0,47,29.96,10.0,West,18.4,-,N/A,,Clear,260,2013-04-20 05:53:00
11:53 PM,52.0,34.0,50,29.99,10.0,WSW,11.5,-,N/A,,Clear,240,2013-04-20 06:53:00